Volver al catálogo

COSMOS 1275 DEB

ActivoPO
NORAD 17625·DEBRIS·🇷🇺 Russia

Lanzado Jun 4, 1981 desde Plesetsk Cosmodrome

Loading…

Próximos Pases (próximas 24 horas)

TLE

ActualizadoSource: Space-Track

Época: Sep 14, 2026, 10:56 UTC

1 17625U 81053KU  26257.45612767  .00001030  00000-0  65241-3 0  9993
2 17625  82.7852  60.8523 0041258 355.3104   4.7674 14.02719402781071

Sigue COSMOS 1275 DEB en tiempo real con AllMySat

Download on the App Store